Location: Kaarina
(60.4167°N, 22.4167°E)
Time: 04:30:30
(UTC+03:00)

Cosmos 1269 Rocket - Pass Details

Date: 24 August 2019
Orbit: 772 x 780 km, 74.1° (Epoch: 23 October)

Event Time Altitude Azimuth Distance (km) Brightness Sun altitude
Rises 23:23:20 0° 327° (NNW) 3,265 9.3 -14.1°
Reaches altitude 10° 23:25:45 10° 324° (NW) 2,335 7.9 -14.3°
Maximum altitude 23:30:58 63° 245° (WSW) 871 4.3 -14.6°
Enters shadow 23:34:27 21° 170° (S) 1,686 5.2 -14.8°
